• In Deutschland
  • Länderverzeichnis
  • Für 7 Tage
  • Wassertemperatur
  • Satellitenkarten
  • Wetterkarte
  • Widgets
  • user-avatar
    Anmelden

    Stündliche Wetter Mugan

    Heute, 24 Oktober, Mittwoch

    Zeit Temperatur Niederschläge Wind Luftdruck Luftfeuchtigkeit
    00:00 +19°C° 0 mm 2 m/S 762 mmHg 80%
    01:00 +19°C° 0 mm 2 m/S 762 mmHg 80%
    02:00 +19°C° 0 mm 2 m/S 762 mmHg 79%
    03:00 +19°C° 0 mm 1 m/S 761 mmHg 79%
    04:00 +19°C° 0 mm 1 m/S 761 mmHg 79%
    05:00 +18°C° 0 mm 2 m/S 761 mmHg 80%
    06:00 +18°C° 0 mm 2 m/S 761 mmHg 80%
    07:00 +19°C° 0 mm 2 m/S 760 mmHg 75%
    08:00 +20°C° 0 mm 3 m/S 760 mmHg 70%
    09:00 +21°C° 0 mm 4 m/S 760 mmHg 65%
    10:00 +23°C° 0 mm 4 m/S 759 mmHg 57%
    11:00 +25°C° 0 mm 5 m/S 759 mmHg 48%
    12:00 +26°C° 0 mm 5 m/S 758 mmHg 40%
    13:00 +27°C° 0 mm 5 m/S 757 mmHg 38%
    14:00 +27°C° 0 mm 5 m/S 756 mmHg 35%
    15:00 +27°C° 0 mm 5 m/S 756 mmHg 32%
    16:00 +26°C° 0 mm 4 m/S 755 mmHg 36%
    17:00 +25°C° 0 mm 4 m/S 755 mmHg 39%
    18:00 +24°C° 0 mm 3 m/S 755 mmHg 42%
    19:00 +24°C° 0 mm 3 m/S 755 mmHg 44%
    20:00 +22°C° 0 mm 3 m/S 754 mmHg 46%
    21:00 +22°C° 0 mm 3 m/S 754 mmHg 49%
    22:00 +21°C° 0 mm 3 m/S 754 mmHg 48%
    23:00 +21°C° 0 mm 3 m/S 754 mmHg 47%

    Morgen, 25 Oktober, Donnerstag

    Zeit Temperatur Niederschläge Wind Luftdruck Luftfeuchtigkeit
    00:00 +21°C° 0 mm 3 m/S 753 mmHg 47%
    01:00 +20°C° 0 mm 4 m/S 753 mmHg 45%
    02:00 +20°C° 0 mm 4 m/S 752 mmHg 44%
    03:00 +20°C° 0 mm 4 m/S 752 mmHg 42%
    04:00 +19°C° 0 mm 4 m/S 752 mmHg 43%
    05:00 +19°C° 0 mm 5 m/S 752 mmHg 43%
    06:00 +19°C° 0 mm 5 m/S 752 mmHg 43%
    07:00 +21°C° 0 mm 5 m/S 751 mmHg 40%
    08:00 +22°C° 0 mm 6 m/S 751 mmHg 36%
    09:00 +24°C° 0 mm 7 m/S 751 mmHg 32%
    10:00 +27°C° 0 mm 7 m/S 751 mmHg 31%
    11:00 +28°C° 0 mm 7 m/S 750 mmHg 29%
    12:00 +30°C° 0 mm 7 m/S 749 mmHg 27%
    13:00 +30°C° 0 mm 6 m/S 749 mmHg 27%
    14:00 +32°C° 0 mm 6 m/S 748 mmHg 26%
    15:00 +32°C° 0 mm 5 m/S 748 mmHg 26%
    16:00 +29°C° 0 mm 4 m/S 748 mmHg 30%
    17:00 +28°C° 0 mm 3 m/S 748 mmHg 34%
    18:00 +26°C° 0 mm 2 m/S 748 mmHg 38%
    19:00 +26°C° 0 mm 2 m/S 748 mmHg 39%
    20:00 +26°C° 0 mm 2 m/S 749 mmHg 39%
    21:00 +25°C° 0 mm 2 m/S 749 mmHg 40%
    22:00 +25°C° 0 mm 3 m/S 750 mmHg 43%
    23:00 +23°C° 0 mm 5 m/S 750 mmHg 47%

    übermorgen, 26 Oktober, Freitag

    Zeit Temperatur Niederschläge Wind Luftdruck Luftfeuchtigkeit
    00:00 +23°C° 0 mm 6 m/S 751 mmHg 51%
    01:00 +22°C° 0 mm 7 m/S 751 mmHg 55%
    02:00 +21°C° 0 mm 8 m/S 752 mmHg 59%
    03:00 +19°C° 0 mm 9 m/S 752 mmHg 64%
    04:00 +18°C° 0.1 mm 9 m/S 753 mmHg 64%
    05:00 +18°C° 0.1 mm 9 m/S 754 mmHg 64%
    06:00 +17°C° 0.1 mm 9 m/S 754 mmHg 64%
    07:00 +17°C° 0 mm 8 m/S 755 mmHg 62%
    08:00 +18°C° 0 mm 7 m/S 756 mmHg 60%
    09:00 +19°C° 0 mm 6 m/S 757 mmHg 57%
    10:00 +19°C° 0 mm 6 m/S 757 mmHg 58%
    11:00 +17°C° 0 mm 6 m/S 757 mmHg 58%
    12:00 +17°C° 0 mm 5 m/S 757 mmHg 59%
    13:00 +17°C° 0 mm 5 m/S 758 mmHg 59%
    14:00 +17°C° 0 mm 6 m/S 758 mmHg 60%
    15:00 +16°C° 0 mm 6 m/S 758 mmHg 61%
    16:00 +16°C° 0.1 mm 5 m/S 759 mmHg 63%
    17:00 +15°C° 0.1 mm 4 m/S 760 mmHg 65%
    18:00 +15°C° 0.1 mm 4 m/S 761 mmHg 67%
    19:00 +14°C° 1 mm 4 m/S 761 mmHg 69%
    20:00 +14°C° 1 mm 4 m/S 762 mmHg 72%
    21:00 +14°C° 1 mm 3 m/S 763 mmHg 74%
    22:00 +14°C° 0.4 mm 3 m/S 763 mmHg 72%
    23:00 +14°C° 0.4 mm 3 m/S 763 mmHg 71%

    27 Oktober, Samstag

    Zeit Temperatur Niederschläge Wind Luftdruck Luftfeuchtigkeit
    00:00 +14°C° 0.4 mm 3 m/S 763 mmHg 69%
    01:00 +14°C° 0 mm 4 m/S 763 mmHg 65%
    02:00 +14°C° 0 mm 5 m/S 764 mmHg 61%
    03:00 +14°C° 0 mm 6 m/S 764 mmHg 58%
    04:00 +14°C° 0 mm 6 m/S 765 mmHg 55%
    05:00 +14°C° 0 mm 6 m/S 766 mmHg 53%
    06:00 +13°C° 0 mm 6 m/S 766 mmHg 51%
    07:00 +15°C° 0 mm 5 m/S 767 mmHg 48%
    08:00 +17°C° 0 mm 4 m/S 768 mmHg 44%
    09:00 +18°C° 0 mm 4 m/S 769 mmHg 41%
    10:00 +19°C° 0 mm 3 m/S 769 mmHg 39%
    11:00 +20°C° 0 mm 3 m/S 769 mmHg 37%
    12:00 +20°C° 0 mm 3 m/S 770 mmHg 34%
    13:00 +21°C° 0 mm 3 m/S 770 mmHg 35%
    14:00 +21°C° 0 mm 4 m/S 770 mmHg 36%
    15:00 +21°C° 0 mm 4 m/S 770 mmHg 37%
    16:00 +20°C° 0 mm 4 m/S 770 mmHg 44%
    17:00 +18°C° 0 mm 4 m/S 771 mmHg 52%
    18:00 +17°C° 0 mm 4 m/S 771 mmHg 59%
    19:00 +17°C° 0 mm 4 m/S 771 mmHg 62%
    20:00 +17°C° 0 mm 3 m/S 772 mmHg 66%
    21:00 +16°C° 0 mm 2 m/S 772 mmHg 69%
    22:00 +16°C° 0 mm 2 m/S 772 mmHg 70%
    23:00 +16°C° 0 mm 2 m/S 771 mmHg 71%

    28 Oktober, Sonntag

    Zeit Temperatur Niederschläge Wind Luftdruck Luftfeuchtigkeit
    00:00 +16°C° 0 mm 2 m/S 771 mmHg 72%
    01:00 +16°C° 0 mm 2 m/S 771 mmHg 73%
    02:00 +16°C° 0 mm 2 m/S 771 mmHg 73%
    03:00 +16°C° 0 mm 2 m/S 771 mmHg 73%
    04:00 +16°C° 0 mm 2 m/S 771 mmHg 75%
    05:00 +15°C° 0 mm 2 m/S 771 mmHg 76%
    06:00 +14°C° 0 mm 3 m/S 772 mmHg 78%
    07:00 +16°C° 0 mm 3 m/S 772 mmHg 73%
    08:00 +17°C° 0 mm 3 m/S 772 mmHg 68%
    09:00 +18°C° 0 mm 3 m/S 772 mmHg 63%
    10:00 +19°C° 0 mm 3 m/S 771 mmHg 58%
    11:00 +20°C° 0 mm 4 m/S 771 mmHg 53%
    12:00 +21°C° 0 mm 4 m/S 770 mmHg 47%
    13:00 +21°C° 0 mm 3 m/S 770 mmHg 45%
    14:00 +21°C° 0 mm 3 m/S 770 mmHg 42%
    15:00 +22°C° 0 mm 3 m/S 770 mmHg 39%
    16:00 +21°C° 0 mm 2 m/S 770 mmHg 42%
    17:00 +20°C° 0 mm 2 m/S 771 mmHg 46%
    18:00 +19°C° 0 mm 2 m/S 771 mmHg 49%
    19:00 +18°C° 0 mm 2 m/S 771 mmHg 52%
    20:00 +19°C° 0 mm 1 m/S 772 mmHg 54%
    21:00 +18°C° 0 mm 1 m/S 772 mmHg 57%
    22:00 +18°C° 0 mm 1 m/S 772 mmHg 60%
    23:00 +18°C° 0 mm 1 m/S 772 mmHg 64%

    29 Oktober, Montag

    Zeit Temperatur Niederschläge Wind Luftdruck Luftfeuchtigkeit
    00:00 +16°C° 0 mm 1 m/S 772 mmHg 67%
    01:00 +16°C° 0 mm 1 m/S 772 mmHg 68%
    02:00 +16°C° 0 mm 1 m/S 772 mmHg 70%
    03:00 +15°C° 0 mm 1 m/S 772 mmHg 72%
    04:00 +15°C° 0 mm 1 m/S 772 mmHg 72%
    05:00 +14°C° 0 mm 0 m/S 772 mmHg 72%
    06:00 +13°C° 0 mm 0 m/S 772 mmHg 73%
    07:00 +16°C° 0 mm 1 m/S 772 mmHg 67%
    08:00 +19°C° 0 mm 1 m/S 773 mmHg 61%
    09:00 +20°C° 0 mm 1 m/S 773 mmHg 55%
    10:00 +21°C° 0 mm 1 m/S 772 mmHg 50%
    11:00 +21°C° 0 mm 2 m/S 772 mmHg 45%
    12:00 +23°C° 0 mm 2 m/S 772 mmHg 41%
    13:00 +24°C° 0 mm 2 m/S 771 mmHg 39%
    14:00 +24°C° 0 mm 2 m/S 771 mmHg 38%
    15:00 +24°C° 0 mm 2 m/S 771 mmHg 37%
    16:00 +23°C° 0 mm 2 m/S 771 mmHg 43%
    17:00 +21°C° 0 mm 3 m/S 771 mmHg 50%
    18:00 +20°C° 0 mm 3 m/S 771 mmHg 56%
    19:00 +19°C° 0 mm 3 m/S 771 mmHg 62%
    20:00 +19°C° 0 mm 3 m/S 771 mmHg 67%
    21:00 +18°C° 0 mm 2 m/S 771 mmHg 73%
    22:00 +18°C° 0 mm 2 m/S 771 mmHg 76%
    23:00 +17°C° 0 mm 2 m/S 771 mmHg 78%
    Mehr zeigen